STARLINK-3748

operational
NORAD ID: 52267 Int'l Des: 2022-041 Owner: SPXS Country: US Constellation: starlink
LEOCIRCULAR

Über STARLINK-3748

Beschreibung wird geladen...

Live-Position

3D-Globus wird geladen...

Nächste Überflüge

Höhenverlauf

Altitude vs Time

uPlot chart will show altitude changes over time

Zweizeiliger Elementsatz

1 52267U 22041G 25251.60325725 -.00000270 00000-0 11111-5 0 9996
2 52267 53.2168 206.5462 0001379 84.3831 275.7319 15.08839087186874
Epoch: 8. Sept. 2025 • Age: 18 hours

Aktueller Status

Höhe 541.9 km
Geschwindigkeit 7.60 km/s
Subsatellitenpunkt 36.86°N, 125.81°E
Startdatum 21. Apr. 2022
Alter 3.3 years
Typ internet

Technische Details

Klassifizierung Payload
Masse 297.00 kg
Trockenmasse 275.00 kg
Gesamtmasse 297.00 kg
Länge 0.20 m
Durchmesser 2.80 m
Spannweite 9.00 m
Form Box + pan
Hersteller SPXS
Bus-Typ Starlink
Phasenstatus In Orbit
Besitzer/Staat SPXS/US

Große Konstellationen

Loading constellations...